Data supplied by UK-AIR on 19/5/2021
All Data GMT hour ending 
Status: R =Ratified P=Provisional,P*=As supplied
,,Lullington Heath,,,,,,,,,,,,,,,,,,,,,,,
Date,time,"Nitric oxide",status,unit,"Nitrogen dioxide",status,unit,"Nitrogen oxides as nitrogen dioxide",status,unit,"Ozone",status,unit,"Sulphur dioxide",status,unit
 
01-01-2020,01:00,1.91731,R,ugm-3,36.40701,R,ugm-3,39.34685,R,ugm-3,2.25754,R,ugm-3,0.28057,R,ugm-3
01-01-2020,02:00,11.41258,R,ugm-3,36.57765,R,ugm-3,54.07669,R,ugm-3,1.20939,R,ugm-3,1.21578,R,ugm-3
01-01-2020,03:00,13.14729,R,ugm-3,34.72491,R,ugm-3,54.88381,R,ugm-3,1.33033,R,ugm-3,1.05212,R,ugm-3
01-01-2020,04:00,6.95026,R,ugm-3,32.52373,R,ugm-3,43.18064,R,ugm-3,1.33033,R,ugm-3,0.56113,R,ugm-3
01-01-2020,05:00,2.46512,R,ugm-3,35.71839,R,ugm-3,39.49818,R,ugm-3,2.23738,R,ugm-3,0.63127,R,ugm-3
01-01-2020,06:00,6.74483,R,ugm-3,39.24518,R,ugm-3,49.58712,R,ugm-3,1.63268,R,ugm-3,0.63127,R,ugm-3
01-01-2020,07:00,4.72481,R,ugm-3,38.15561,R,ugm-3,45.40021,R,ugm-3,1.87456,R,ugm-3,0.63127,R,ugm-3
01-01-2020,08:00,0.75323,R,ugm-3,36.67857,R,ugm-3,37.83351,R,ugm-3,5.74462,R,ugm-3,0.49099,R,ugm-3
01-01-2020,09:00,0.95866,R,ugm-3,25.01354,R,ugm-3,26.48346,R,ugm-3,13.66615,R,ugm-3,0.49099,R,ugm-3
01-01-2020,10:00,1.16408,R,ugm-3,19.90631,R,ugm-3,21.69121,R,ugm-3,16.68964,R,ugm-3,0.28057,R,ugm-3
01-01-2020,11:00,1.26680,R,ugm-3,18.08414,R,ugm-3,20.02654,R,ugm-3,20.74111,R,ugm-3,0.14028,R,ugm-3
01-01-2020,12:00,1.12985,R,ugm-3,14.51078,R,ugm-3,16.24319,R,ugm-3,27.27184,R,ugm-3,0.35071,R,ugm-3
01-01-2020,13:00,1.06137,R,ugm-3,14.91844,R,ugm-3,16.54585,R,ugm-3,27.87654,R,ugm-3,0.42085,R,ugm-3
01-01-2020,14:00,0.85594,R,ugm-3,13.21564,R,ugm-3,14.52807,R,ugm-3,30.23486,R,ugm-3,0.70141,R,ugm-3
01-01-2020,15:00,0.75323,R,ugm-3,13.67580,R,ugm-3,14.83074,R,ugm-3,27.93701,R,ugm-3,0.70141,R,ugm-3
01-01-2020,16:00,0.75323,R,ugm-3,13.02002,R,ugm-3,14.17496,R,ugm-3,27.93701,R,ugm-3,0.84170,R,ugm-3
01-01-2020,17:00,0.68476,R,ugm-3,11.66212,R,ugm-3,12.71206,R,ugm-3,25.82057,R,ugm-3,0.63127,R,ugm-3
01-01-2020,18:00,0.44509,R,ugm-3,8.80114,R,ugm-3,9.48360,R,ugm-3,24.36929,R,ugm-3,0.35071,R,ugm-3
01-01-2020,19:00,0.37662,R,ugm-3,10.41947,R,ugm-3,10.99694,R,ugm-3,28.54170,R,ugm-3,0.14028,R,ugm-3
01-01-2020,20:00,0.47933,R,ugm-3,10.91776,R,ugm-3,11.65272,R,ugm-3,27.63466,R,ugm-3,0.28057,R,ugm-3
01-01-2020,21:00,0.37662,R,ugm-3,8.80524,R,ugm-3,9.38271,R,ugm-3,27.09043,R,ugm-3,0.21042,R,ugm-3
01-01-2020,22:00,0.58204,R,ugm-3,6.77514,R,ugm-3,7.66759,R,ugm-3,32.89552,R,ugm-3,0.56113,R,ugm-3
01-01-2020,23:00,0.27390,R,ugm-3,4.67494,R,ugm-3,5.09491,R,ugm-3,38.21686,R,ugm-3,0.70141,R,ugm-3
01-01-2020,24:00,0.20543,R,ugm-3,3.77104,R,ugm-3,4.08602,R,ugm-3,36.22136,R,ugm-3,0.63127,R,ugm-3
02-01-2020,01:00,0.18260,R,ugm-3,4.02042,R,ugm-3,4.30041,R,ugm-3,36.20120,R,ugm-3,0.56164,R,ugm-3
02-01-2020,02:00,0.23967,R,ugm-3,4.67206,R,ugm-3,5.03954,R,ugm-3,30.47673,R,ugm-3,0.65525,R,ugm-3
02-01-2020,03:00,0.41085,R,ugm-3,5.61906,R,ugm-3,6.24903,R,ugm-3,37.24934,R,ugm-3,0.42123,R,ugm-3
02-01-2020,04:00,0.47933,R,ugm-3,4.45576,R,ugm-3,5.19073,R,ugm-3,44.98946,R,ugm-3,0.56164,R,ugm-3
02-01-2020,05:00,0.37662,R,ugm-3,4.10930,R,ugm-3,4.68677,R,ugm-3,50.43174,R,ugm-3,0.56164,R,ugm-3
02-01-2020,06:00,0.37662,R,ugm-3,4.61325,R,ugm-3,5.19073,R,ugm-3,52.66912,R,ugm-3,0.70205,R,ugm-3
02-01-2020,07:00,0.51357,R,ugm-3,4.70564,R,ugm-3,5.49310,R,ugm-3,56.72059,R,ugm-3,0.70205,R,ugm-3
02-01-2020,08:00,0.34238,R,ugm-3,4.31298,R,ugm-3,4.83796,R,ugm-3,56.72059,R,ugm-3,0.49144,R,ugm-3
02-01-2020,09:00,0.54781,R,ugm-3,4.45156,R,ugm-3,5.29152,R,ugm-3,53.33428,R,ugm-3,0.63185,R,ugm-3
02-01-2020,10:00,0.41085,R,ugm-3,2.14178,R,ugm-3,2.77175,R,ugm-3,63.06991,R,ugm-3,0.77226,R,ugm-3
02-01-2020,11:00,0.54781,R,ugm-3,3.04049,R,ugm-3,3.88045,R,ugm-3,61.55817,R,ugm-3,0.63185,R,ugm-3
02-01-2020,12:00,0.51357,R,ugm-3,4.05050,R,ugm-3,4.83796,R,ugm-3,60.59065,R,ugm-3,0.70205,R,ugm-3
02-01-2020,13:00,0.51357,R,ugm-3,2.79061,R,ugm-3,3.57807,R,ugm-3,59.19985,R,ugm-3,0.84246,R,ugm-3
02-01-2020,14:00,0.41085,R,ugm-3,3.45206,R,ugm-3,4.08203,R,ugm-3,62.94897,R,ugm-3,1.47431,R,ugm-3
02-01-2020,15:00,0.51357,R,ugm-3,1.68191,R,ugm-3,2.46937,R,ugm-3,70.87050,R,ugm-3,1.26369,R,ugm-3
02-01-2020,16:00,0.27390,R,ugm-3,2.70454,R,ugm-3,3.12451,R,ugm-3,67.00044,R,ugm-3,1.26369,R,ugm-3
02-01-2020,17:00,0.23967,R,ugm-3,3.86573,R,ugm-3,4.23321,R,ugm-3,64.03742,R,ugm-3,1.61472,R,ugm-3
02-01-2020,18:00,0.41085,R,ugm-3,2.79692,R,ugm-3,3.42689,R,ugm-3,65.67011,R,ugm-3,1.68492,R,ugm-3
02-01-2020,19:00,0.47933,R,ugm-3,2.33916,R,ugm-3,3.07412,R,ugm-3,65.60964,R,ugm-3,1.47431,R,ugm-3
02-01-2020,20:00,0.20543,R,ugm-3,2.65834,R,ugm-3,2.97333,R,ugm-3,67.72608,R,ugm-3,1.54451,R,ugm-3
02-01-2020,21:00,0.23967,R,ugm-3,3.05941,R,ugm-3,3.42689,R,ugm-3,70.14486,R,ugm-3,1.68492,R,ugm-3
02-01-2020,22:00,0.41085,R,ugm-3,1.94020,R,ugm-3,2.57017,R,ugm-3,73.65211,R,ugm-3,1.68492,R,ugm-3
02-01-2020,23:00,0.20543,R,ugm-3,1.80162,R,ugm-3,2.11661,R,ugm-3,73.95446,R,ugm-3,1.89554,R,ugm-3
02-01-2020,24:00,0.20543,R,ugm-3,3.06151,R,ugm-3,3.37649,R,ugm-3,71.59614,R,ugm-3,2.03595,R,ugm-3
03-01-2020,01:00,0.36521,R,ugm-3,2.32654,R,ugm-3,2.88651,R,ugm-3,71.03175,R,ugm-3,3.56030,R,ugm-3
03-01-2020,02:00,0.41086,R,ugm-3,1.85377,R,ugm-3,2.48374,R,ugm-3,71.59614,R,ugm-3,3.84138,R,ugm-3
03-01-2020,03:00,0.30814,R,ugm-3,2.85037,R,ugm-3,3.32284,R,ugm-3,70.20533,R,ugm-3,4.00534,R,ugm-3
03-01-2020,04:00,0.41086,R,ugm-3,1.43422,R,ugm-3,2.06419,R,ugm-3,72.56365,R,ugm-3,4.14588,R,ugm-3
03-01-2020,05:00,0.20543,R,ugm-3,2.05128,R,ugm-3,2.36627,R,ugm-3,80.48518,R,ugm-3,4.00534,R,ugm-3
03-01-2020,06:00,0.37662,R,ugm-3,1.88949,R,ugm-3,2.46696,R,ugm-3,82.29928,R,ugm-3,4.07561,R,ugm-3
03-01-2020,07:00,0.27391,R,ugm-3,2.34906,R,ugm-3,2.76904,R,ugm-3,81.08988,R,ugm-3,4.00534,R,ugm-3
03-01-2020,08:00,0.37662,R,ugm-3,3.29918,R,ugm-3,3.87665,R,ugm-3,77.94546,R,ugm-3,3.93507,R,ugm-3
03-01-2020,09:00,0.37662,R,ugm-3,3.75229,R,ugm-3,4.32976,R,ugm-3,75.22432,R,ugm-3,3.72427,R,ugm-3
03-01-2020,10:00,0.54781,R,ugm-3,2.53323,R,ugm-3,3.37319,R,ugm-3,75.34526,R,ugm-3,3.44319,R,ugm-3
03-01-2020,11:00,0.51357,R,ugm-3,4.59957,R,ugm-3,5.38703,R,ugm-3,68.45171,R,ugm-3,3.51346,R,ugm-3
03-01-2020,12:00,0.78748,R,ugm-3,6.69689,R,ugm-3,7.90434,R,ugm-3,62.04192,R,ugm-3,3.37292,R,ugm-3
03-01-2020,13:00,1.57495,R,ugm-3,7.10052,R,ugm-3,9.51541,R,ugm-3,65.79104,R,ugm-3,3.16211,R,ugm-3
03-01-2020,14:00,1.30105,R,ugm-3,7.77224,R,ugm-3,9.76714,R,ugm-3,64.94447,R,ugm-3,2.67023,R,ugm-3
03-01-2020,15:00,0.82171,R,ugm-3,6.64440,R,ugm-3,7.90434,R,ugm-3,67.06091,R,ugm-3,2.31888,R,ugm-3
03-01-2020,16:00,0.51357,R,ugm-3,8.12380,R,ugm-3,8.91126,R,ugm-3,63.37226,R,ugm-3,1.89727,R,ugm-3
03-01-2020,17:00,0.41086,R,ugm-3,8.23094,R,ugm-3,8.86092,R,ugm-3,60.53018,R,ugm-3,1.61619,R,ugm-3
03-01-2020,18:00,0.51357,R,ugm-3,10.54041,R,ugm-3,11.32787,R,ugm-3,58.35327,R,ugm-3,1.54592,R,ugm-3
03-01-2020,19:00,0.41086,R,ugm-3,9.08683,R,ugm-3,9.71680,R,ugm-3,56.11589,R,ugm-3,1.33512,R,ugm-3
03-01-2020,20:00,0.37662,R,ugm-3,7.52825,R,ugm-3,8.10572,R,ugm-3,53.75757,R,ugm-3,1.33512,R,ugm-3
03-01-2020,21:00,0.37662,R,ugm-3,6.16891,R,ugm-3,6.74638,R,ugm-3,56.23683,R,ugm-3,1.05404,R,ugm-3
03-01-2020,22:00,0.44510,R,ugm-3,5.25837,R,ugm-3,5.94084,R,ugm-3,57.99045,R,ugm-3,0.77296,R,ugm-3
03-01-2020,23:00,0.37662,R,ugm-3,5.86683,R,ugm-3,6.44430,R,ugm-3,52.97147,R,ugm-3,0.63242,R,ugm-3
03-01-2020,24:00,0.47933,R,ugm-3,3.84653,R,ugm-3,4.58150,R,ugm-3,55.93448,R,ugm-3,0.35135,R,ugm-3
04-01-2020,01:00,0.22826,R,ugm-3,3.60670,R,ugm-3,3.95668,R,ugm-3,59.42157,R,ugm-3,0.46889,R,ugm-3
04-01-2020,02:00,0.51357,R,ugm-3,2.93450,R,ugm-3,3.72196,R,ugm-3,60.77206,R,ugm-3,0.46889,R,ugm-3
04-01-2020,03:00,0.27391,R,ugm-3,1.84338,R,ugm-3,2.26336,R,ugm-3,64.58165,R,ugm-3,0.14067,R,ugm-3
04-01-2020,04:00,0.23967,R,ugm-3,2.14736,R,ugm-3,2.51484,R,ugm-3,59.68360,R,ugm-3,0.14067,R,ugm-3
04-01-2020,05:00,0.23967,R,ugm-3,1.54380,R,ugm-3,1.91128,R,ugm-3,62.64662,R,ugm-3,0.14067,R,ugm-3
04-01-2020,06:00,0.37662,R,ugm-3,1.73618,R,ugm-3,2.31365,R,ugm-3,64.03742,R,ugm-3,0.28133,R,ugm-3
04-01-2020,07:00,0.27391,R,ugm-3,2.34634,R,ugm-3,2.76632,R,ugm-3,62.52568,R,ugm-3,0.35167,R,ugm-3
04-01-2020,08:00,0.41086,R,ugm-3,4.45001,R,ugm-3,5.07998,R,ugm-3,55.51119,R,ugm-3,0.28133,R,ugm-3
04-01-2020,09:00,0.58205,R,ugm-3,12.33560,R,ugm-3,13.22806,R,ugm-3,46.13839,R,ugm-3,0.28133,R,ugm-3
04-01-2020,10:00,1.19834,R,ugm-3,12.09479,R,ugm-3,13.93222,R,ugm-3,49.88751,R,ugm-3,0.42200,R,ugm-3
04-01-2020,11:00,1.02715,R,ugm-3,10.84838,R,ugm-3,12.42331,R,ugm-3,54.05992,R,ugm-3,0.35167,R,ugm-3
04-01-2020,12:00,0.65053,R,ugm-3,7.15063,R,ugm-3,8.14808,R,ugm-3,61.55817,R,ugm-3,0.49233,R,ugm-3
04-01-2020,13:00,0.68476,R,ugm-3,2.92349,R,ugm-3,3.97345,R,ugm-3,69.96345,R,ugm-3,0.56266,R,ugm-3
04-01-2020,14:00,0.65053,R,ugm-3,3.57955,R,ugm-3,4.57701,R,ugm-3,66.27480,R,ugm-3,0.63300,R,ugm-3
04-01-2020,15:00,0.92443,R,ugm-3,5.37263,R,ugm-3,6.79007,R,ugm-3,63.43273,R,ugm-3,0.63300,R,ugm-3
04-01-2020,16:00,0.54781,R,ugm-3,6.25189,R,ugm-3,7.09185,R,ugm-3,61.19535,R,ugm-3,0.56266,R,ugm-3
04-01-2020,17:00,0.30814,R,ugm-3,9.78807,R,ugm-3,10.26055,R,ugm-3,53.33428,R,ugm-3,0.35167,R,ugm-3
04-01-2020,18:00,0.51357,R,ugm-3,15.60929,R,ugm-3,16.39676,R,ugm-3,39.91001,R,ugm-3,0.21100,R,ugm-3
04-01-2020,19:00,0.37662,R,ugm-3,17.83116,R,ugm-3,18.40864,R,ugm-3,35.19337,R,ugm-3,0.28133,R,ugm-3
04-01-2020,20:00,0.54781,R,ugm-3,16.91481,R,ugm-3,17.75478,R,ugm-3,34.64914,R,ugm-3,0.21100,R,ugm-3
04-01-2020,21:00,0.41086,R,ugm-3,10.73711,R,ugm-3,11.36708,R,ugm-3,42.08692,R,ugm-3,0.14067,R,ugm-3
04-01-2020,22:00,0.47934,R,ugm-3,11.33627,R,ugm-3,12.07124,R,ugm-3,38.21686,R,ugm-3,0.42200,R,ugm-3
04-01-2020,23:00,0.68476,R,ugm-3,10.21653,R,ugm-3,11.26649,R,ugm-3,32.89552,R,ugm-3,0.35167,R,ugm-3
04-01-2020,24:00,0.37662,R,ugm-3,9.53218,R,ugm-3,10.10966,R,ugm-3,39.60766,R,ugm-3,0.35167,R,ugm-3
05-01-2020,01:00,0.50216,R,ugm-3,10.68647,R,ugm-3,11.45644,R,ugm-3,28.86421,R,ugm-3,0.75090,R,ugm-3
05-01-2020,02:00,0.23967,R,ugm-3,9.98350,R,ugm-3,10.35099,R,ugm-3,36.70511,R,ugm-3,0.84476,R,ugm-3
05-01-2020,03:00,0.51358,R,ugm-3,8.20684,R,ugm-3,8.99431,R,ugm-3,45.59416,R,ugm-3,0.70397,R,ugm-3
05-01-2020,04:00,0.41086,R,ugm-3,6.00270,R,ugm-3,6.63267,R,ugm-3,50.91550,R,ugm-3,0.56318,R,ugm-3
05-01-2020,05:00,0.47934,R,ugm-3,3.33508,R,ugm-3,4.07005,R,ugm-3,61.86051,R,ugm-3,0.56318,R,ugm-3
05-01-2020,06:00,0.41086,R,ugm-3,2.28438,R,ugm-3,2.91436,R,ugm-3,69.35876,R,ugm-3,0.42238,R,ugm-3
05-01-2020,07:00,0.30815,R,ugm-3,2.99460,R,ugm-3,3.46708,R,ugm-3,73.04741,R,ugm-3,0.63357,R,ugm-3
05-01-2020,08:00,0.41086,R,ugm-3,4.29428,R,ugm-3,4.92426,R,ugm-3,71.77755,R,ugm-3,0.63357,R,ugm-3
05-01-2020,09:00,0.34238,R,ugm-3,4.80126,R,ugm-3,5.32624,R,ugm-3,73.22882,R,ugm-3,0.35198,R,ugm-3
05-01-2020,10:00,0.27391,R,ugm-3,2.99685,R,ugm-3,3.41683,R,ugm-3,77.52217,R,ugm-3,0.28159,R,ugm-3
05-01-2020,11:00,0.37662,R,ugm-3,2.13589,R,ugm-3,2.71337,R,ugm-3,79.88049,R,ugm-3,0.28159,R,ugm-3
05-01-2020,12:00,0.30815,R,ugm-3,1.73841,R,ugm-3,2.21089,R,ugm-3,79.69908,R,ugm-3,0.63357,R,ugm-3
05-01-2020,13:00,0.23967,R,ugm-3,2.69761,R,ugm-3,3.06510,R,ugm-3,79.15485,R,ugm-3,0.56318,R,ugm-3
05-01-2020,14:00,0.41086,R,ugm-3,2.38487,R,ugm-3,3.01485,R,ugm-3,77.82452,R,ugm-3,0.56318,R,ugm-3
05-01-2020,15:00,0.41086,R,ugm-3,1.78191,R,ugm-3,2.41188,R,ugm-3,78.42921,R,ugm-3,0.77437,R,ugm-3
05-01-2020,16:00,0.30815,R,ugm-3,2.44187,R,ugm-3,2.91436,R,ugm-3,73.89399,R,ugm-3,0.91516,R,ugm-3
05-01-2020,17:00,0.30815,R,ugm-3,2.49212,R,ugm-3,2.96461,R,ugm-3,74.01493,R,ugm-3,0.91516,R,ugm-3
05-01-2020,18:00,0.37662,R,ugm-3,3.34183,R,ugm-3,3.91931,R,ugm-3,68.69359,R,ugm-3,1.05595,R,ugm-3
05-01-2020,19:00,0.37662,R,ugm-3,4.09554,R,ugm-3,4.67302,R,ugm-3,58.35327,R,ugm-3,1.33754,R,ugm-3
05-01-2020,20:00,0.65053,R,ugm-3,5.03224,R,ugm-3,6.02970,R,ugm-3,59.98595,R,ugm-3,1.19675,R,ugm-3
05-01-2020,21:00,0.37662,R,ugm-3,3.79406,R,ugm-3,4.37154,R,ugm-3,72.62412,R,ugm-3,1.33754,R,ugm-3
05-01-2020,22:00,0.54781,R,ugm-3,2.67736,R,ugm-3,3.51733,R,ugm-3,74.25680,R,ugm-3,1.68953,R,ugm-3
05-01-2020,23:00,0.41086,R,ugm-3,2.33463,R,ugm-3,2.96461,R,ugm-3,76.73606,R,ugm-3,1.61913,R,ugm-3
05-01-2020,24:00,0.23967,R,ugm-3,1.69266,R,ugm-3,2.06015,R,ugm-3,79.33626,R,ugm-3,1.97112,R,ugm-3
06-01-2020,01:00,0.36521,R,ugm-3,0.91250,R,ugm-3,1.47248,R,ugm-3,81.51317,R,ugm-3,0.46974,R,ugm-3
06-01-2020,02:00,0.54782,R,ugm-3,1.41895,R,ugm-3,2.25892,R,ugm-3,80.18284,R,ugm-3,0.84553,R,ugm-3
06-01-2020,03:00,0.47934,R,ugm-3,1.37335,R,ugm-3,2.10833,R,ugm-3,78.00593,R,ugm-3,0.84553,R,ugm-3
06-01-2020,04:00,0.51358,R,ugm-3,1.72244,R,ugm-3,2.50991,R,ugm-3,76.37324,R,ugm-3,1.05691,R,ugm-3
06-01-2020,05:00,0.41086,R,ugm-3,1.62894,R,ugm-3,2.25892,R,ugm-3,77.70358,R,ugm-3,1.12737,R,ugm-3
06-01-2020,06:00,0.17119,R,ugm-3,1.64504,R,ugm-3,1.90753,R,ugm-3,75.16385,R,ugm-3,1.19783,R,ugm-3
06-01-2020,07:00,0.10272,R,ugm-3,1.64964,R,ugm-3,1.80714,R,ugm-3,74.55915,R,ugm-3,1.40922,R,ugm-3
06-01-2020,08:00,0.51358,R,ugm-3,1.32085,R,ugm-3,2.10833,R,ugm-3,74.37774,R,ugm-3,1.40922,R,ugm-3
06-01-2020,09:00,0.47934,R,ugm-3,2.12632,R,ugm-3,2.86130,R,ugm-3,72.62412,R,ugm-3,1.62060,R,ugm-3
06-01-2020,10:00,0.58206,R,ugm-3,2.82220,R,ugm-3,3.71467,R,ugm-3,72.74506,R,ugm-3,1.83198,R,ugm-3
06-01-2020,11:00,0.54782,R,ugm-3,3.27628,R,ugm-3,4.11626,R,ugm-3,71.47520,R,ugm-3,2.04336,R,ugm-3
06-01-2020,12:00,0.75325,R,ugm-3,3.21228,R,ugm-3,4.36725,R,ugm-3,70.32627,R,ugm-3,2.04336,R,ugm-3
06-01-2020,13:00,0.51358,R,ugm-3,3.07779,R,ugm-3,3.86526,R,ugm-3,70.38674,R,ugm-3,2.46613,R,ugm-3
06-01-2020,14:00,0.54782,R,ugm-3,1.97113,R,ugm-3,2.81110,R,ugm-3,70.74956,R,ugm-3,2.32521,R,ugm-3
06-01-2020,15:00,0.47934,R,ugm-3,3.73267,R,ugm-3,4.46764,R,ugm-3,65.85151,R,ugm-3,2.39567,R,ugm-3
06-01-2020,16:00,0.34239,R,ugm-3,3.74187,R,ugm-3,4.26685,R,ugm-3,69.54017,R,ugm-3,2.60705,R,ugm-3
06-01-2020,17:00,0.30815,R,ugm-3,4.34655,R,ugm-3,4.81903,R,ugm-3,65.00494,R,ugm-3,2.53659,R,ugm-3
06-01-2020,18:00,0.13695,R,ugm-3,4.91023,R,ugm-3,5.12022,R,ugm-3,61.61863,R,ugm-3,2.53659,R,ugm-3
06-01-2020,19:00,0.47934,R,ugm-3,3.58207,R,ugm-3,4.31705,R,ugm-3,60.83253,R,ugm-3,2.32521,R,ugm-3
06-01-2020,20:00,0.17119,R,ugm-3,4.35575,R,ugm-3,4.61824,R,ugm-3,63.06991,R,ugm-3,2.32521,R,ugm-3
06-01-2020,21:00,0.41086,R,ugm-3,8.55630,R,ugm-3,9.18628,R,ugm-3,57.86951,R,ugm-3,2.39567,R,ugm-3
06-01-2020,22:00,0.51358,R,ugm-3,13.21783,R,ugm-3,14.00531,R,ugm-3,48.43624,R,ugm-3,2.25475,R,ugm-3
06-01-2020,23:00,0.51358,R,ugm-3,13.41863,R,ugm-3,14.20610,R,ugm-3,45.77557,R,ugm-3,1.97290,R,ugm-3
06-01-2020,24:00,0.34239,R,ugm-3,11.72339,R,ugm-3,12.24837,R,ugm-3,46.98497,R,ugm-3,1.97290,R,ugm-3
07-01-2020,01:00,0.31956,R,ugm-3,8.60369,R,ugm-3,9.09368,R,ugm-3,50.06892,R,ugm-3,1.12840,R,ugm-3
07-01-2020,02:00,0.41086,R,ugm-3,7.24340,R,ugm-3,7.87339,R,ugm-3,56.11589,R,ugm-3,0.37613,R,ugm-3
07-01-2020,03:00,0.20543,R,ugm-3,5.65273,R,ugm-3,5.96773,R,ugm-3,52.91100,R,ugm-3,0.35263,R,ugm-3
07-01-2020,04:00,0.44510,R,ugm-3,3.27929,R,ugm-3,3.96177,R,ugm-3,55.63213,R,ugm-3,0.35263,R,ugm-3
07-01-2020,05:00,0.47934,R,ugm-3,2.37426,R,ugm-3,3.10924,R,ugm-3,59.62313,R,ugm-3,0.42315,R,ugm-3
07-01-2020,06:00,0.47934,R,ugm-3,2.22381,R,ugm-3,2.95879,R,ugm-3,65.85151,R,ugm-3,0.21157,R,ugm-3
07-01-2020,07:00,0.34239,R,ugm-3,3.78783,R,ugm-3,4.31281,R,ugm-3,64.64212,R,ugm-3,0.42315,R,ugm-3
07-01-2020,08:00,0.34239,R,ugm-3,5.79378,R,ugm-3,6.31877,R,ugm-3,63.37226,R,ugm-3,0.42315,R,ugm-3
07-01-2020,09:00,0.47934,R,ugm-3,9.84645,R,ugm-3,10.58143,R,ugm-3,59.50220,R,ugm-3,0.28210,R,ugm-3
07-01-2020,10:00,0.44510,R,ugm-3,5.53599,R,ugm-3,6.21847,R,ugm-3,64.88400,R,ugm-3,0.28210,R,ugm-3
07-01-2020,11:00,0.65054,R,ugm-3,3.16489,R,ugm-3,4.16236,R,ugm-3,65.00494,R,ugm-3,0.28210,R,ugm-3
07-01-2020,12:00,0.71901,R,ugm-3,2.20736,R,ugm-3,3.30983,R,ugm-3,65.42823,R,ugm-3,0.42315,R,ugm-3
07-01-2020,13:00,0.89021,R,ugm-3,3.04814,R,ugm-3,4.41311,R,ugm-3,65.91198,R,ugm-3,0.49367,R,ugm-3
07-01-2020,14:00,0.89021,R,ugm-3,5.35500,R,ugm-3,6.71996,R,ugm-3,61.13488,R,ugm-3,0.70525,R,ugm-3
07-01-2020,15:00,0.41086,R,ugm-3,5.03685,R,ugm-3,5.66683,R,ugm-3,61.55817,R,ugm-3,0.63472,R,ugm-3
07-01-2020,16:00,0.23967,R,ugm-3,4.09577,R,ugm-3,4.46326,R,ugm-3,63.25132,R,ugm-3,0.56420,R,ugm-3
07-01-2020,17:00,0.27391,R,ugm-3,3.04029,R,ugm-3,3.46028,R,ugm-3,65.97245,R,ugm-3,0.49367,R,ugm-3
07-01-2020,18:00,0.30815,R,ugm-3,3.38898,R,ugm-3,3.86147,R,ugm-3,62.52568,R,ugm-3,0.84630,R,ugm-3
07-01-2020,19:00,0.27391,R,ugm-3,4.19372,R,ugm-3,4.61370,R,ugm-3,59.56266,R,ugm-3,0.91682,R,ugm-3
07-01-2020,20:00,0.37663,R,ugm-3,5.44039,R,ugm-3,6.01787,R,ugm-3,55.51119,R,ugm-3,0.77577,R,ugm-3
07-01-2020,21:00,0.37663,R,ugm-3,6.64396,R,ugm-3,7.22145,R,ugm-3,52.54818,R,ugm-3,0.98735,R,ugm-3
07-01-2020,22:00,0.41086,R,ugm-3,3.48223,R,ugm-3,4.11221,R,ugm-3,59.44173,R,ugm-3,0.98735,R,ugm-3
07-01-2020,23:00,0.20543,R,ugm-3,2.99484,R,ugm-3,3.30983,R,ugm-3,62.16286,R,ugm-3,1.19892,R,ugm-3
07-01-2020,24:00,0.20543,R,ugm-3,4.39901,R,ugm-3,4.71400,R,ugm-3,62.88850,R,ugm-3,0.84630,R,ugm-3
08-01-2020,01:00,0.36521,R,ugm-3,1.71120,R,ugm-3,2.27119,R,ugm-3,69.01610,R,ugm-3,1.22354,R,ugm-3
08-01-2020,02:00,0.41087,R,ugm-3,3.37799,R,ugm-3,4.00797,R,ugm-3,66.87950,R,ugm-3,1.12942,R,ugm-3
08-01-2020,03:00,0.37663,R,ugm-3,4.43248,R,ugm-3,5.00997,R,ugm-3,65.79104,R,ugm-3,1.20001,R,ugm-3
08-01-2020,04:00,0.30815,R,ugm-3,3.83608,R,ugm-3,4.30857,R,ugm-3,67.36326,R,ugm-3,1.20001,R,ugm-3
08-01-2020,05:00,0.27391,R,ugm-3,2.48579,R,ugm-3,2.90578,R,ugm-3,69.60064,R,ugm-3,1.27060,R,ugm-3
08-01-2020,06:00,0.37663,R,ugm-3,4.63288,R,ugm-3,5.21037,R,ugm-3,63.79554,R,ugm-3,0.98824,R,ugm-3
08-01-2020,07:00,0.47934,R,ugm-3,6.98037,R,ugm-3,7.71535,R,ugm-3,57.86951,R,ugm-3,0.98824,R,ugm-3
08-01-2020,08:00,0.44511,R,ugm-3,6.68217,R,ugm-3,7.36465,R,ugm-3,57.38576,R,ugm-3,1.05883,R,ugm-3
08-01-2020,09:00,0.34239,R,ugm-3,6.23847,R,ugm-3,6.76346,R,ugm-3,59.26032,R,ugm-3,0.91765,R,ugm-3
08-01-2020,10:00,0.44511,R,ugm-3,3.82649,R,ugm-3,4.50897,R,ugm-3,62.40474,R,ugm-3,0.84706,R,ugm-3
08-01-2020,11:00,0.89021,R,ugm-3,6.14998,R,ugm-3,7.51495,R,ugm-3,58.89750,R,ugm-3,0.77648,R,ugm-3
08-01-2020,12:00,0.71902,R,ugm-3,4.60889,R,ugm-3,5.71136,R,ugm-3,61.67910,R,ugm-3,0.77648,R,ugm-3
08-01-2020,13:00,0.47934,R,ugm-3,5.02648,R,ugm-3,5.76146,R,ugm-3,62.10239,R,ugm-3,0.91765,R,ugm-3
08-01-2020,14:00,0.51358,R,ugm-3,5.42488,R,ugm-3,6.21236,R,ugm-3,60.53018,R,ugm-3,0.91765,R,ugm-3
08-01-2020,15:00,0.58206,R,ugm-3,6.22167,R,ugm-3,7.11415,R,ugm-3,58.95797,R,ugm-3,0.77648,R,ugm-3
08-01-2020,16:00,0.47934,R,ugm-3,6.52947,R,ugm-3,7.26445,R,ugm-3,58.17186,R,ugm-3,0.35294,R,ugm-3
08-01-2020,17:00,0.30815,R,ugm-3,6.69176,R,ugm-3,7.16425,R,ugm-3,56.72059,R,ugm-3,0.35294,R,ugm-3
08-01-2020,18:00,0.44511,R,ugm-3,5.68017,R,ugm-3,6.36266,R,ugm-3,51.27831,R,ugm-3,0.28236,R,ugm-3
08-01-2020,19:00,0.37663,R,ugm-3,5.68497,R,ugm-3,6.26246,R,ugm-3,50.55268,R,ugm-3,0.49412,R,ugm-3
08-01-2020,20:00,0.23967,R,ugm-3,13.30972,R,ugm-3,13.67721,R,ugm-3,47.83154,R,ugm-3,0.56471,R,ugm-3
08-01-2020,21:00,0.30815,R,ugm-3,7.09256,R,ugm-3,7.56505,R,ugm-3,59.19985,R,ugm-3,0.70589,R,ugm-3
08-01-2020,22:00,0.65054,R,ugm-3,6.11667,R,ugm-3,7.11415,R,ugm-3,58.35327,R,ugm-3,0.91765,R,ugm-3
08-01-2020,23:00,0.41087,R,ugm-3,8.28775,R,ugm-3,8.91774,R,ugm-3,48.31530,R,ugm-3,0.77648,R,ugm-3
08-01-2020,24:00,0.37663,R,ugm-3,6.18597,R,ugm-3,6.76346,R,ugm-3,49.52469,R,ugm-3,1.12942,R,ugm-3
09-01-2020,01:00,0.31956,R,ugm-3,5.64952,R,ugm-3,6.13951,R,ugm-3,51.27831,R,ugm-3,,,
09-01-2020,02:00,0.44511,R,ugm-3,4.77300,R,ugm-3,5.45549,R,ugm-3,55.47088,R,ugm-3,0.47102,R,ugm-3
09-01-2020,03:00,0.27391,R,ugm-3,2.53298,R,ugm-3,2.95297,R,ugm-3,58.95797,R,ugm-3,0.49457,R,ugm-3
09-01-2020,04:00,0.30815,R,ugm-3,3.03104,R,ugm-3,3.50353,R,ugm-3,61.67910,R,ugm-3,0.84783,R,ugm-3
09-01-2020,05:00,0.37663,R,ugm-3,1.02412,R,ugm-3,1.60161,R,ugm-3,65.91198,R,ugm-3,0.91848,R,ugm-3
09-01-2020,06:00,0.34239,R,ugm-3,3.77934,R,ugm-3,4.30433,R,ugm-3,61.86051,R,ugm-3,0.91848,R,ugm-3
09-01-2020,07:00,0.37663,R,ugm-3,1.47458,R,ugm-3,2.05207,R,ugm-3,63.55367,R,ugm-3,0.63587,R,ugm-3
09-01-2020,08:00,0.41087,R,ugm-3,3.72440,R,ugm-3,4.35438,R,ugm-3,59.44173,R,ugm-3,0.84783,R,ugm-3
09-01-2020,09:00,0.30815,R,ugm-3,2.53053,R,ugm-3,3.00302,R,ugm-3,60.16736,R,ugm-3,0.70653,R,ugm-3
09-01-2020,10:00,0.47935,R,ugm-3,2.91869,R,ugm-3,3.65368,R,ugm-3,57.92998,R,ugm-3,0.84783,R,ugm-3
09-01-2020,11:00,0.65054,R,ugm-3,5.25882,R,ugm-3,6.25630,R,ugm-3,55.02744,R,ugm-3,1.34240,R,ugm-3
09-01-2020,12:00,0.71902,R,ugm-3,6.05472,R,ugm-3,7.15720,R,ugm-3,53.99945,R,ugm-3,1.13044,R,ugm-3
09-01-2020,13:00,0.75326,R,ugm-3,7.30353,R,ugm-3,8.45851,R,ugm-3,50.00845,R,ugm-3,1.41305,R,ugm-3
09-01-2020,14:00,0.68478,R,ugm-3,6.65778,R,ugm-3,7.70776,R,ugm-3,53.27382,R,ugm-3,1.41305,R,ugm-3
09-01-2020,15:00,0.61630,R,ugm-3,5.41142,R,ugm-3,6.35640,R,ugm-3,55.02744,R,ugm-3,1.20109,R,ugm-3
09-01-2020,16:00,0.51359,R,ugm-3,5.81916,R,ugm-3,6.60665,R,ugm-3,55.87401,R,ugm-3,1.48371,R,ugm-3
09-01-2020,17:00,0.34239,R,ugm-3,3.42899,R,ugm-3,3.95398,R,ugm-3,68.08889,R,ugm-3,1.27175,R,ugm-3
09-01-2020,18:00,0.44511,R,ugm-3,3.97220,R,ugm-3,4.65469,R,ugm-3,76.67559,R,ugm-3,1.13044,R,ugm-3
09-01-2020,19:00,0.61630,R,ugm-3,2.95895,R,ugm-3,3.90393,R,ugm-3,85.74605,R,ugm-3,0.91848,R,ugm-3
09-01-2020,20:00,0.37663,R,ugm-3,2.77589,R,ugm-3,3.35338,R,ugm-3,85.98793,R,ugm-3,0.91848,R,ugm-3
09-01-2020,21:00,0.27391,R,ugm-3,2.58303,R,ugm-3,3.00302,R,ugm-3,83.38773,R,ugm-3,-0.21196,R,ugm-3
09-01-2020,22:00,0.23967,R,ugm-3,6.98991,R,ugm-3,7.35741,R,ugm-3,74.49868,R,ugm-3,0.98914,R,ugm-3
09-01-2020,23:00,0.34239,R,ugm-3,5.38096,R,ugm-3,5.90594,R,ugm-3,74.19633,R,ugm-3,1.48371,R,ugm-3
09-01-2020,24:00,0.34239,R,ugm-3,3.22879,R,ugm-3,3.75378,R,ugm-3,79.21532,R,ugm-3,1.05979,R,ugm-3
10-01-2020,01:00,0.45652,R,ugm-3,3.23343,R,ugm-3,3.93342,R,ugm-3,70.30612,R,ugm-3,4.71443,R,ugm-3
10-01-2020,02:00,0.30815,R,ugm-3,6.22765,R,ugm-3,6.70015,R,ugm-3,45.83604,R,ugm-3,4.52586,R,ugm-3
10-01-2020,03:00,0.58207,R,ugm-3,7.00768,R,ugm-3,7.90017,R,ugm-3,41.84504,R,ugm-3,4.38442,R,ugm-3
10-01-2020,04:00,0.51359,R,ugm-3,8.51271,R,ugm-3,9.30020,R,ugm-3,39.48672,R,ugm-3,4.17227,R,ugm-3
10-01-2020,05:00,0.41087,R,ugm-3,8.22020,R,ugm-3,8.85019,R,ugm-3,44.86853,R,ugm-3,3.39439,R,ugm-3
10-01-2020,06:00,0.23967,R,ugm-3,5.33263,R,ugm-3,5.70012,R,ugm-3,55.02744,R,ugm-3,2.82866,R,ugm-3
10-01-2020,07:00,0.37663,R,ugm-3,4.57262,R,ugm-3,5.15011,R,ugm-3,61.25582,R,ugm-3,3.25296,R,ugm-3
10-01-2020,08:00,0.44511,R,ugm-3,6.06766,R,ugm-3,6.75015,R,ugm-3,57.38576,R,ugm-3,2.82866,R,ugm-3
10-01-2020,09:00,0.51359,R,ugm-3,8.01270,R,ugm-3,8.80019,R,ugm-3,53.45522,R,ugm-3,2.54579,R,ugm-3
10-01-2020,10:00,0.65054,R,ugm-3,9.15273,R,ugm-3,10.15022,R,ugm-3,54.54368,R,ugm-3,2.12150,R,ugm-3
10-01-2020,11:00,0.61631,R,ugm-3,7.75520,R,ugm-3,8.70019,R,ugm-3,64.70259,R,ugm-3,1.76791,R,ugm-3
10-01-2020,12:00,0.92446,R,ugm-3,4.83265,R,ugm-3,6.25014,R,ugm-3,71.77755,R,ugm-3,1.83863,R,ugm-3
10-01-2020,13:00,1.16413,R,ugm-3,6.16520,R,ugm-3,7.95017,R,ugm-3,68.69359,R,ugm-3,1.62648,R,ugm-3
10-01-2020,14:00,1.50652,R,ugm-3,7.64025,R,ugm-3,9.95022,R,ugm-3,64.27930,R,ugm-3,1.62648,R,ugm-3
10-01-2020,15:00,0.92446,R,ugm-3,9.08275,R,ugm-3,10.50023,R,ugm-3,60.83253,R,ugm-3,1.41433,R,ugm-3
10-01-2020,16:00,0.71902,R,ugm-3,7.89771,R,ugm-3,9.00020,R,ugm-3,60.53018,R,ugm-3,1.13146,R,ugm-3
10-01-2020,17:00,0.41087,R,ugm-3,9.87024,R,ugm-3,10.50023,R,ugm-3,49.28281,R,ugm-3,0.84860,R,ugm-3
10-01-2020,18:00,0.30815,R,ugm-3,9.52772,R,ugm-3,10.00022,R,ugm-3,50.06892,R,ugm-3,0.77788,R,ugm-3
10-01-2020,19:00,0.58207,R,ugm-3,9.30773,R,ugm-3,10.20022,R,ugm-3,55.87401,R,ugm-3,0.63645,R,ugm-3
10-01-2020,20:00,0.44511,R,ugm-3,5.31764,R,ugm-3,6.00013,R,ugm-3,63.25132,R,ugm-3,0.28287,R,ugm-3
10-01-2020,21:00,0.30815,R,ugm-3,3.57760,R,ugm-3,4.05009,R,ugm-3,68.02842,R,ugm-3,0.56573,R,ugm-3
10-01-2020,22:00,0.41087,R,ugm-3,3.17009,R,ugm-3,3.80008,R,ugm-3,69.96345,R,ugm-3,0.70717,R,ugm-3
10-01-2020,23:00,0.51359,R,ugm-3,1.81257,R,ugm-3,2.60006,R,ugm-3,74.31727,R,ugm-3,0.49502,R,ugm-3
10-01-2020,24:00,0.51359,R,ugm-3,3.16260,R,ugm-3,3.95009,R,ugm-3,74.19633,R,ugm-3,0.49502,R,ugm-3